Powrót do katalogu

DELTA 1 DEB

AktywnySSO
NORAD 40757·DEBRIS·🇺🇸 United States

Wystrzelony Jul 29, 1976 z Vandenberg Space Force Base

Loading…

Następne Przeloty (najbliższe 24 godziny)

TLE

ŚwieżeSource: Space-Track

Epoka: Sep 13, 2026, 03:15 UTC

1 40757U 76077GA  26256.13591511  .00000011  00000-0  35185-3 0  9994
2 40757 101.9209 230.7717 0004845 347.3407  12.7543 12.54852757587832

Śledź DELTA 1 DEB w czasie rzeczywistym z AllMySat

Download on the App Store